Location: London
(51.5074°N, 0.1278°W)
Time: 07:44:10
(UTC+01:00)

DELFI C3 - Visible Passes

Search period start: 09 May 2021 00:00
Search period end: 19 May 2021 00:00
Orbit: 533 x 546 km, 97.4° (Epoch: 08 May)

Date Brightness Start Highest point End Pass type
(mag) Time Alt. Az. Time Alt. Az. Time Alt. Az.
14 May ? 21:51:26 10° W 21:52:22 11° W 21:53:18 10° WNW visible
15 May ? 21:43:00 10° WSW 21:44:48 13° W 21:46:35 10° WNW visible
16 May ? 21:34:55 10° SW 21:37:13 15° W 21:39:32 10° NW visible
17 May ? 21:26:58 10° SW 21:29:39 18° W 21:32:22 10° NW visible
